[[{"header":{"parameterUnit":"m.s-1","parameterCategory":1,"la1":30.2991,"la2":30.254,"lo1":-89.0895,"lo2":-89.0444,"dy":0.0017,"dx":0.0017,"nx":28,"ny":28,"refTime":"2023-11-10T09:00:00:Z","depth":0,"parameterNumber":2,"parameterNumberName":"U-component_of_WINDS"},"data":[0,0,0,0,0,0,0,0,0,0,0,0,0,0,0,0,0,0,0,0,0,0,0,0,0,0,0,0,0,0,0,0,0,0,0,0,0,0,0,0,0,0,0,0,0,0,0,0,0,0,0,0,0,0,0,0,0,0,-1.9008,-1.9008,0,-1.9024,-1.9024,-1.9024,-1.8985,-1.8984,-1.8983,-1.8982,-1.8997,-1.8998,-1.9,0,0,0,0,0,0,0,0,0,0,0,0,0,-1.8945,-1.8947,-1.9008,-1.9008,-1.9008,-1.9024,-1.9024,-1.9024,-1.8986,-1.8984,-1.8983,-1.8981,-1.8996,-1.8998,-1.9,0,0,0,0,0,0,0,0,0,0,0,0,0,-1.8968,-1.8947,-1.9008,-1.8991,-1.899,-1.9024,-1.9024,-1.9024,-1.8986,-1.8984,-1.8982,-1.8981,-1.8995,-1.8998,-1.9,-1.905,0,0,-1.9007,-1.9008,0,0,0,0,0,0,0,0,-1.8967,-1.897,-1.8993,-1.8992,-1.8991,-1.9001,-1.9007,-1.9033,-1.8986,-1.8987,-1.8982,-1.898,-1.8999,-1.9001,-1.9008,-1.9051,-1.9052,-1.9007,-1.9008,-1.9009,-1.901,0,0,0,0,0,0,0,-1.8965,-1.8969,-1.9014,-1.8994,-1.8992,-1.8983,-1.8984,-1.9012,-1.9003,-1.8987,-1.8984,-1.8987,-1.8998,-1.9006,-1.9008,-1.9052,-1.9007,-1.9009,-1.901,-1.9011,-1.9138,-1.914,0,0,0,0,0,0,-1.8966,-1.8968,-1.9014,-1.9015,-1.8974,-1.8985,-1.8987,-1.8999,-1.9003,-1.9002,-1.8988,-1.8985,-1.9003,-1.9005,-1.9008,-1.9068,-1.9009,-1.9012,-1.9013,-1.9136,-1.9138,-1.9141,0,0,0,0,0,0,-1.8965,-1.897,-1.9013,-1.8991,-1.8995,-1.8989,-1.9003,-1.9001,-1.9008,-1.9004,-1.9002,-1.8998,-1.9002,-1.9005,-1.904,-1.9068,-1.9013,-1.9015,-1.9134,-1.9137,-1.914,-1.9187,0,0,0,0,0,0,-1.8963,-1.897,-1.8989,-1.8991,-1.8997,-1.9045,-1.9005,-1.9002,-1.9012,-1.9008,-1.9012,-1.9011,-1.9,-1.9037,-1.9043,-1.907,-1.9016,-1.9131,-1.9135,-1.9139,-1.9183,-1.9192,-1.9199,0,0,0,0,0,-1.8961,-1.9001,-1.899,-1.8996,-1.902,-1.9047,-1.905,-1.9037,-1.9015,-1.9034,-1.9031,-1.9011,-1.9065,-1.9041,-1.9047,-1.9076,-1.9129,-1.9134,-1.9138,-1.918,-1.919,-1.9199,0,0,0,0,0,0,-1.9001,-1.9001,-1.8989,-1.9031,-1.9039,-1.904,-1.9063,-1.9048,-1.9062,-1.9057,-1.9041,-1.9042,-1.9081,-1.9082,-1.9056,-1.9125,-1.9093,-1.9099,-1.9123,-1.9132,-1.914,-1.9138,-1.9018,0,0,0,0,0,-1.9015,-1.9036,-1.9035,-1.9073,-1.9078,-1.907,-1.9081,-1.9071,-1.9078,-1.9081,-1.9081,-1.9089,-1.9108,-1.912,-1.9137,-1.9184,-1.9184,-1.9207,-1.9214,-1.9221,-1.9226,-1.9251,-1.9261,-1.9155,-1.9155,-1.9155,0,0,-1.9043,-1.9046,-1.906,-1.9081,-1.9086,-1.9109,-1.9073,-1.9098,-1.9115,-1.9085,-1.9118,-1.9119,-1.9127,-1.9168,-1.9187,-1.917,-1.9255,-1.9226,-1.9232,-1.9233,-1.9257,-1.9267,-1.9276,-1.9159,-1.9158,-1.9157,0,0,-1.9107,-1.9111,-1.9143,-1.915,-1.9159,-1.9154,-1.9162,-1.9165,-1.9165,-1.9198,-1.9177,-1.9196,-1.9229,-1.9235,-1.9243,-1.9312,-1.9294,-1.9318,-1.9358,-1.9383,-1.9392,-1.9399,-1.9423,-1.9433,-1.9323,-1.9323,-1.9323,0,-1.9141,-1.9174,-1.9162,-1.9189,-1.9199,-1.9174,-1.9207,-1.9214,-1.9227,-1.9235,-1.9217,-1.9258,-1.9261,-1.9304,-1.9321,-1.9328,-1.9337,-1.9317,-1.9392,-1.9399,-1.9405,-1.9429,-1.9438,-1.9326,-1.9326,-1.9326,-1.9325,0,-1.9216,-1.924,-1.9265,-1.928,-1.9293,-1.9323,-1.9315,-1.9329,-1.9319,-1.9316,-1.9351,-1.9355,-1.9372,-1.9382,-1.9372,-1.9424,-1.9414,-1.9394,-1.9362,-1.9418,-1.944,-1.9449,-1.933,-1.9329,-1.9328,-1.9328,0,0,-1.9303,-1.9313,-1.9322,-1.9329,-1.9338,-1.9356,-1.9385,-1.9403,-1.9416,-1.9427,-1.9451,-1.948,-1.9463,-1.9471,-1.9462,-1.9484,-1.9539,-1.9461,-1.9461,-1.9475,-1.9598,-1.9612,-1.9622,-1.9528,-1.9529,-1.9531,-1.9597,0,-1.9366,-1.9417,-1.9407,-1.9456,-1.9479,-1.9457,-1.9482,-1.9491,-1.949,-1.9508,-1.9507,-1.9528,-1.9502,-1.9508,-1.9529,-1.9528,-1.9563,-1.9523,-1.9549,-1.9551,-1.9547,-1.9634,-1.9649,-1.9711,-1.9605,-1.9607,-1.9608,0,-1.9446,-1.9461,-1.9513,-1.9519,-1.9528,-1.9551,-1.9568,-1.9586,-1.9596,-1.9593,-1.9605,-1.9591,-1.9621,-1.9589,-1.9629,-1.9602,-1.9613,-1.9614,-1.9616,-1.9618,-1.9582,-1.9637,-1.973,-1.974,-1.9621,-1.962,-1.9619,0,-1.9504,-1.9537,-1.9573,-1.958,-1.9588,-1.9605,-1.961,-1.9617,-1.9629,-1.9644,-1.9652,-1.967,-1.9679,-1.9693,-1.9685,-1.9663,-1.9728,-1.9695,-1.9726,-1.9727,-1.974,-1.9739,-1.9836,-1.9748,-1.9748,-1.9748,-1.9748,0,-1.9575,-1.9607,-1.9599,-1.9621,-1.9657,-1.9647,-1.9683,-1.9684,-1.9692,-1.9714,-1.9696,-1.9717,-1.9706,-1.9726,-1.972,-1.9755,-1.9759,-1.9758,-1.9756,-1.9759,-1.9759,-1.9765,-1.976,-1.975,-1.975,-1.9749,-1.9749,0,-1.9645,-1.9641,-1.9679,-1.9685,-1.9687,-1.9713,-1.9718,-1.9739,-1.9737,-1.9765,-1.9771,-1.9769,-1.9792,-1.9786,-1.981,-1.9806,-1.985,-1.9843,-1.9847,-1.9845,-1.9877,-1.9874,-1.998,-1.9994,-1.9898,-1.9899,-1.9899,0,-1.969,-1.9715,-1.9724,-1.9738,-1.9744,-1.9766,-1.9779,-1.977,-1.9784,-1.9798,-1.9817,-1.9839,-1.9855,-1.9893,-1.9893,-1.9912,-1.9905,-1.9941,-1.9908,-1.9911,-1.9905,-1.9904,-1.9906,-1.9947,-1.9949,-1.9949,-1.995,0,-1.977,-1.9768,-1.9787,-1.9806,-1.9822,-1.9836,-1.9849,-1.9861,-1.9853,-1.987,-1.9894,-1.9907,-1.9933,-1.9955,-1.9973,-1.9978,-1.9963,-1.9961,-1.9969,-1.9972,-1.9974,-1.9973,-1.9865,-1.9958,-1.9957,-1.9957,-1.9956,-1.9956,-1.9829,-1.985,-1.9861,-1.9883,-1.9892,-1.9905,-1.9925,-1.9927,-1.9946,-1.9967,-1.9961,-1.9989,-1.9999,-2.0022,-2.0029,-2.005,-2.0036,-2.0048,-2.0051,-2.0054,-2.0058,-1.9972,-2.0053,-2.0053,-2.0053,-2.0052,-2.0052,0,-1.9908,-1.9914,-1.9935,-1.9954,-1.9972,-1.9958,-1.9972,-1.9988,-2.0012,-2.0023,-2.0041,-2.0069,-2.009,-2.0093,-2.0114,-2.013,-2.0124,-2.0136,-2.0134,-2.0136,-2.0069,-2.006,-2.0141,-2.0141,-2.0141,-2.0141,-2.0141,-2.0141,-1.9951,-1.9987,-1.9986,-2.0026,-2.0032,-2.0059,-2.0069,-2.0081,-2.009,-2.0122,-2.014,-2.0142,-2.015,-2.0172,-2.0191,-2.0191,-2.0199,-2.0214,-2.0212,-2.0149,-2.014,-2.0132,-2.0123,-2.0216,-2.0216,-2.0276,-2.0277,-2.0277]},{"header":{"parameterUnit":"m.s-1","parameterCategory":1,"la1":30.2991,"la2":30.254,"lo1":-89.0895,"lo2":-89.0444,"dy":0.0017,"dx":0.0017,"nx":28,"ny":28,"refTime":"2023-11-10T09:00:00:Z","depth":0,"parameterNumber":3,"parameterNumberName":"V-component_of_WINDS"},"data":[0,0,0,0,0,0,0,0,0,0,0,0,0,0,0,0,0,0,0,0,0,0,0,0,0,0,0,0,0,0,0,0,0,0,0,0,0,0,0,0,0,0,0,0,0,0,0,0,0,0,0,0,0,0,0,0,0,0,0.0004,0.0003,0,-0.0075,-0.0076,-0.0077,-0.0099,-0.0099,-0.0098,-0.0098,-0.0181,-0.0183,-0.0186,0,0,0,0,0,0,0,0,0,0,0,0,0,0.0133,0.0131,0.0004,0.0003,0.0002,-0.0075,-0.0076,-0.0077,-0.0099,-0.0099,-0.0098,-0.0098,-0.018,-0.0183,-0.0186,0,0,0,0,0,0,0,0,0,0,0,0,0,0.0068,0.013,0.0004,-0.0019,-0.0021,-0.0074,-0.0076,-0.0077,-0.0099,-0.0099,-0.0098,-0.0097,-0.0179,-0.0182,-0.0186,-0.0223,0,0,-0.0198,-0.02,0,0,0,0,0,0,0,0,0.0071,0.0063,-0.0014,-0.0017,-0.002,-0.0076,-0.006,-0.0126,-0.01,-0.007,-0.0098,-0.0097,-0.0147,-0.0153,-0.0169,-0.0227,-0.0231,-0.0199,-0.0201,-0.0203,-0.0204,0,0,0,0,0,0,0,0.0076,0.0066,-0.0027,-0.0016,-0.0019,-0.0025,-0.0034,-0.0073,-0.0111,-0.0072,-0.0074,-0.0083,-0.0148,-0.0165,-0.0171,-0.0232,-0.0198,-0.0202,-0.0204,-0.0206,-0.0322,-0.0323,0,0,0,0,0,0,0.0085,0.007,-0.0025,-0.003,0.0028,-0.0028,-0.0038,-0.0059,-0.0111,-0.0118,-0.0084,-0.0084,-0.0159,-0.0167,-0.0174,-0.022,-0.0203,-0.0206,-0.0208,-0.0321,-0.0322,-0.0323,0,0,0,0,0,0,0.0087,0.0076,-0.0022,0.002,0.0007,-0.0031,-0.0055,-0.0061,-0.0078,-0.0119,-0.0126,-0.0094,-0.0159,-0.0169,-0.021,-0.0223,-0.0208,-0.0212,-0.032,-0.0322,-0.0323,-0.0312,0,0,0,0,0,0,0.0091,0.0077,0.0063,0.002,0.0005,-0.0056,-0.0056,-0.0063,-0.0085,-0.0086,-0.0131,-0.0138,-0.0159,-0.0204,-0.0214,-0.0228,-0.0215,-0.0319,-0.0321,-0.0322,-0.0311,-0.0313,-0.0314,0,0,0,0,0,0.0096,0.0068,0.0062,0.0051,-0.0014,-0.0057,-0.0066,-0.0089,-0.0086,-0.0101,-0.0126,-0.0136,-0.022,-0.0208,-0.022,-0.0235,-0.0319,-0.032,-0.0322,-0.0311,-0.0312,-0.0314,0,0,0,0,0,0,0.011,0.0062,0.0055,0.0012,-0.0018,-0.0061,-0.008,-0.009,-0.0123,-0.0123,-0.0151,-0.0161,-0.02,-0.0222,-0.0208,-0.0273,-0.027,-0.0274,-0.0257,-0.0259,-0.026,-0.0254,-0.0218,0,0,0,0,0,0.0108,0.0078,0.0037,0.0004,-0.0011,-0.0043,-0.0062,-0.0077,-0.0111,-0.0124,-0.0153,-0.0185,-0.0218,-0.024,-0.0273,-0.0314,-0.0324,-0.033,-0.0331,-0.0332,-0.0336,-0.0358,-0.0361,-0.0328,-0.0328,-0.0328,0,0,0.0103,0.0074,0.0056,0.0006,-0.002,-0.005,-0.0054,-0.0087,-0.011,-0.0129,-0.017,-0.0192,-0.0229,-0.027,-0.029,-0.029,-0.0346,-0.0334,-0.0335,-0.0338,-0.036,-0.0363,-0.0365,-0.033,-0.0329,-0.0329,0,0,0.008,0.0054,0.0024,-0.0001,-0.0038,-0.0059,-0.0066,-0.0107,-0.0122,-0.0162,-0.0177,-0.0205,-0.0262,-0.0288,-0.0308,-0.0339,-0.0349,-0.0349,-0.0355,-0.0376,-0.0379,-0.0381,-0.0392,-0.0395,-0.0352,-0.0352,-0.0352,0,0.0079,0.0032,0.001,-0.0022,-0.0043,-0.006,-0.0091,-0.0114,-0.0161,-0.0175,-0.0174,-0.0245,-0.0271,-0.0318,-0.0325,-0.0341,-0.035,-0.0344,-0.0377,-0.0379,-0.0382,-0.0392,-0.0396,-0.0351,-0.0352,-0.0352,-0.0352,0,0.0033,0.0001,-0.0019,-0.0062,-0.0085,-0.0116,-0.0143,-0.0164,-0.0177,-0.0197,-0.0238,-0.027,-0.0309,-0.0321,-0.0334,-0.0369,-0.0368,-0.0371,-0.0369,-0.0384,-0.0394,-0.0398,-0.0351,-0.0351,-0.0351,-0.0351,0,0,0.0014,-0.0039,-0.0046,-0.0065,-0.0107,-0.0132,-0.0163,-0.02,-0.0217,-0.0248,-0.0275,-0.0322,-0.0324,-0.0348,-0.0364,-0.0382,-0.0403,-0.0383,-0.0385,-0.0386,-0.0442,-0.044,-0.0444,-0.0409,-0.041,-0.0411,-0.0439,0,-0.0015,-0.0071,-0.0091,-0.0137,-0.0166,-0.0181,-0.0208,-0.0237,-0.0256,-0.0284,-0.0306,-0.0338,-0.0339,-0.0353,-0.0372,-0.0396,-0.0415,-0.0395,-0.0435,-0.0436,-0.0425,-0.0449,-0.0447,-0.0472,-0.0443,-0.0444,-0.0444,0,-0.0057,-0.0086,-0.0135,-0.0171,-0.0184,-0.0208,-0.0242,-0.0268,-0.03,-0.0313,-0.0337,-0.0352,-0.0384,-0.0379,-0.0424,-0.041,-0.0427,-0.0441,-0.0443,-0.0448,-0.0442,-0.0455,-0.0481,-0.0485,-0.0451,-0.045,-0.045,0,-0.0065,-0.0117,-0.0153,-0.0168,-0.0212,-0.0228,-0.0247,-0.0278,-0.0298,-0.0328,-0.0341,-0.0375,-0.0394,-0.042,-0.0442,-0.0437,-0.0485,-0.0482,-0.0497,-0.0496,-0.0507,-0.0507,-0.0537,-0.0518,-0.0518,-0.0518,-0.0518,0,-0.0095,-0.0124,-0.0157,-0.0179,-0.0211,-0.0233,-0.0265,-0.0285,-0.0312,-0.0338,-0.0353,-0.0377,-0.0405,-0.0433,-0.0451,-0.0485,-0.0493,-0.0504,-0.0509,-0.0503,-0.0502,-0.0516,-0.0515,-0.0519,-0.0519,-0.0518,-0.0518,0,-0.0111,-0.0134,-0.0173,-0.021,-0.022,-0.0242,-0.0273,-0.0295,-0.0314,-0.0346,-0.0355,-0.0386,-0.0418,-0.0443,-0.0486,-0.0498,-0.0534,-0.0539,-0.0523,-0.0526,-0.0539,-0.0537,-0.0579,-0.0585,-0.0562,-0.0562,-0.0563,0,-0.0129,-0.0151,-0.019,-0.0207,-0.0225,-0.0254,-0.0274,-0.0297,-0.0317,-0.0354,-0.0371,-0.0404,-0.0432,-0.0484,-0.051,-0.0543,-0.0548,-0.0561,-0.0553,-0.0546,-0.0548,-0.0547,-0.0549,-0.0562,-0.0562,-0.0562,-0.0562,0,-0.0158,-0.0168,-0.0196,-0.0227,-0.0251,-0.0277,-0.0303,-0.0317,-0.0344,-0.0366,-0.0399,-0.0421,-0.0463,-0.0496,-0.0531,-0.0551,-0.0561,-0.0564,-0.0569,-0.0564,-0.0553,-0.0559,-0.0526,-0.0563,-0.0563,-0.0563,-0.0563,-0.0563,-0.0176,-0.0196,-0.0225,-0.0255,-0.0277,-0.0301,-0.0322,-0.0343,-0.0371,-0.0407,-0.0418,-0.0452,-0.0482,-0.0529,-0.0549,-0.0575,-0.0575,-0.0583,-0.0585,-0.0587,-0.0586,-0.0548,-0.0582,-0.0582,-0.0582,-0.0582,-0.0582,0,-0.0206,-0.0225,-0.0252,-0.0288,-0.0311,-0.0317,-0.0346,-0.0365,-0.0395,-0.0421,-0.0448,-0.0485,-0.0516,-0.0544,-0.0576,-0.0592,-0.0598,-0.06,-0.0599,-0.0604,-0.0584,-0.0576,-0.0595,-0.0595,-0.0595,-0.0595,-0.0595,-0.0595,-0.0224,-0.0258,-0.027,-0.0314,-0.0333,-0.0366,-0.0382,-0.0403,-0.0424,-0.0465,-0.049,-0.0507,-0.0534,-0.0568,-0.0597,-0.0604,-0.0616,-0.0617,-0.0625,-0.0607,-0.0605,-0.0604,-0.0596,-0.0619,-0.0619,-0.0642,-0.0643,-0.0643]}]]